Breeders Fall Classic - 325 FINAL

Station: Linton IN - A Race

Distance: 325 Miles

Release: 02-Nov-2022 09:30

Weather Release:    Arrival: PT CLDY

Wind at Release: LIGHT/VARIABLE     Wind at Arrival: LIGHT/VARIABLE

Temp at Release: 59°    Temp at Arrival: 65°

Lofts: 67

Birds: 87

Clocked: 59

Good Luck to Everyone!
Drops Pos Breeder Pigeon Name Color Sex Team Ent Arrival Speed To Win Elg PdColored
6500 1 Queen Louie - ID 2115-AU22-PNWC BB 0 1 1 16:59:54.10 1271.389 00:00:00 Yes
4000 2 Phoenixloft - NY 8963-AU22-VITA BC H 1 1 16:59:54.50 1271.370 00:00:00 Yes
2500 3 Loan Tran - MA 26829-AU22-FOYS BB H 1 1 17:21:32.40 1213.047 00:21:38 Yes
1000 4 Mike Hines - SD 2108-AU22-GPF Simply Irresistible BC H 1 1 17:37:17.00 1173.855 00:37:23 Yes
2000 5 Ethan Pippitt - KS 51582-AU22-ARPU BB H 1 1 17:37:18.10 1173.811 00:37:24 Yes
1000 6 Ron Pairan - OH 0253-AU22-LFO BB H 1 1 17:54:00.70 1134.894 00:54:07 Yes
1000 7 Mike Hines - SD 2112-AU22-GPF Just In Time BC C 1 2 18:00:24.80 1120.660 01:00:31 Yes
1500 8 Hale Nūnū - VA 0005-AU22-NUNU BBWF H 1 1 18:06:52.80 1106.640 01:06:59 Yes
1000 9 Steve Mayr - NY 4477-AU22-ERIE BBPW H 1 1 18:12:54.60 1093.878 01:13:01 Yes
1000 10 Galiano Loft - MD 0530-IF22-CCC BC H 1 1 18:12:55.00 1093.865 01:13:01 Yes
1000 11 Jakes Loft - MI 19810-AU22-JEDD WHGZ H 1 1 2022-11-03 10:42:04.20 762.443 05:00:19 Yes
1000 12 Wing And A Prayer-Wi - WI 2525-AU22-MPC BB H 1 1 2022-11-03 10:52:49.90 751.661 05:11:05 Yes
500 13 Phoenixloft - NY 8962-AU22-VITA BC H 1 2 2022-11-03 10:52:52.90 751.611 05:11:08 Yes
500 14 Borderjumper - OR 22026-AU22-BORD Grandi Speranze Uno BB H 1 1 2022-11-03 11:21:19.40 724.534 05:39:34 Yes
500 15 Jack The Reaper Loft - CA 1256-AU22-FMT Fairy dust BB H 1 1 2022-11-03 11:24:06.30 721.990 05:42:21 Yes
850 16 Mike Hines - SD 2116-AU22-GPF Red Cloud RC C 1 3 2022-11-03 11:27:37.70 718.793 05:45:53 Yes
250 17 Top Perch - MD 23332-IF22-SBS BBSP H 1 1 2022-11-03 11:31:58.30 714.891 05:50:13 Yes
250 18 Racing Pigeon Mall - WA 0200-AU22-RPM BLK H 1 1 2022-11-03 11:39:08.40 708.543 05:57:23 Yes
650 19 Magic Pick Loft - OH 0134-AU22-IHC WHGZ H 1 1 2022-11-03 11:40:08.30 707.668 05:58:23 Yes
250 20 Phoenixloft - NY 8953-AU22-VITA DC H 1 3 2022-11-03 11:47:37.10 701.179 06:05:52 Yes
21 LIBERTY LOFT - MA 26831-AU22-FOYS BB H 1 1 2022-11-03 11:50:43.20 698.524 06:08:58 Yes
22 Jones Family Loft - TX 2341-AU22-JFL SLTW H 1 1 2022-11-03 12:12:06.40 680.744 06:30:21 Yes
23 Nanez Family Loft - WI 0731-IF22-RR BB H 1 1 2022-11-03 12:15:08.30 678.297 06:33:23 Yes
24 Mike Horner - OH 1606-AU22-VITA BB H 1 1 2022-11-03 12:24:17.30 671.016 06:42:32 Yes
25 Steve Mayr - NY 7688-AU22-BISN BBPD H 1 2 2022-11-03 12:31:47.30 665.164 06:50:02 Yes
26 Callahan Loft - MO 22139-AU22-AA BC H 1 1 2022-11-03 12:34:08.90 663.344 06:52:24 Yes
200 27 Jeff Tanner - OH 33107-AU22-AA BLK H 1 1 2022-11-03 12:34:19.90 663.203 06:52:35 Yes
28 Stevw Piroch - OH 0915-AU22-IHC BBSP H 1 1 2022-11-03 13:09:38.10 637.124 07:27:53 Yes
29 Dennis Johnson - OH 0194-AU22-IHC WHGZ H 1 1 2022-11-03 13:22:49.80 627.895 07:41:05 Yes
30 New Orleans Boys - LA 22268-AU22-MET BBWF H 1 1 2022-11-03 13:34:39.60 619.846 07:52:54 Yes
31 Miss Dash For Cash - TX 0126-AU22-SIT BC H 1 1 2022-11-03 13:46:23.60 612.064 08:04:38 Yes
32 Abilene Loft - OH 0502-AU22-MVS BB H 1 1 2022-11-03 13:50:14.70 609.551 08:08:30 Yes
33 Frank Mowinski - OH 0568-AU22-IHC BB H 1 1 2022-11-03 13:59:29.20 603.607 08:17:44 Yes
34 Bluesbirds - OH 17199-AU22-AA RDGZ H 1 1 2022-11-03 14:00:50.90 602.741 08:19:06 Yes
35 Cherokee Loft - MI 5025-AU22-ARPU BC H 1 1 2022-11-03 14:14:43.80 594.051 08:32:59 Yes
36 Steve Mayr - NY 7677-AU22-BISN BBTW H 1 3 2022-11-03 14:14:56.30 593.923 08:33:11 Yes
37 Chicagoland - OH 11205-AU22-CHIC BB 0 1 1 2022-11-03 14:18:51.60 591.514 08:37:07 Yes
38 Era Loft - NY 0705-AU22-BUF BBWF H 1 1 2022-11-03 14:18:53.70 591.493 08:37:09 Yes
39 Goshentown Lofts - TN 11312-AU22-NASH BB H 1 1 2022-11-03 14:27:32.20 586.254 08:45:47 Yes
40 Bluesbirds - OH 17153-AU22-AA BB H 1 2 2022-11-03 14:41:25.30 578.028 08:59:40 Yes
41 Dave Harrett - WA 18766-AU22-JEDD BCPW H 1 1 2022-11-03 14:44:57.00 575.974 09:03:12 Yes
42 Trapper Bob Loft - MO 0431-AU22-TRAP BC 0 1 1 2022-11-03 14:45:02.70 575.919 09:03:18 Yes
43 Barry Karas - MI 0536-AU22-HMC BB 0 1 1 2022-11-03 15:05:20.50 564.385 09:23:35 Yes
44 Galiano Loft - MD 0521-IF22-CCC GRIZ H 1 2 2022-11-03 15:12:33.80 560.392 09:30:49 Yes
45 Dave Harrett - WA 18753-AU22-JEDD BC H 1 2 2022-11-03 15:26:11.50 553.009 09:44:26 Yes
46 Jones Family Loft - TX 2320-AU22-JFL GRIZ H 1 2 2022-11-03 15:34:20.90 548.682 09:52:36 Yes
47 Wingsnwind Loft - SC 2177-AU22-GRPC DC H 1 1 2022-11-03 15:44:28.20 543.406 10:02:43 Yes
48 Rich K - OH 0583-AU22-IHC DCWF H 1 1 2022-11-03 16:00:57.30 535.027 10:19:12 Yes
49 Cherokee Loft - MI 5024-AU22-ARPU BC H 1 2 2022-11-03 16:34:35.40 518.708 10:52:50 Yes
50 Cherokee Loft - MI 5029-AU22-ARPU BC H 1 3 2022-11-03 16:39:19.10 516.493 10:57:34 Yes
51 Rich K - OH 0582-AU22-IHC BBPW H 1 2 2022-11-03 17:48:41.40 486.047 12:06:56 Yes
52 CAN-AM LOFT - MI 22105-AU22-CAAM BB H 1 1 2022-11-03 18:10:32.90 477.184 12:28:48 Yes
53 Bluesbirds - OH 17152-AU22-AA WHGZ H 1 3 2022-11-04 09:03:01.10 431.074 14:37:01 Yes
54 Wareagle Loft - AL 0844-AU22-WEL RC H 1 1 2022-11-04 10:58:39.40 396.518 16:32:39 Yes
55 Chicagoland - OH 11207-AU22-CHIC BC 0 1 2 2022-11-04 11:00:13.90 396.086 16:34:14 Yes
56 Todd Clement - OH 0492-AU22-IHC SILV H 1 1 2022-11-04 12:38:56.40 370.745 18:12:56 Yes
57 Re "s Joy - TN 0314-AU22-BAMA BB H 1 1 2022-11-04 13:44:47.40 355.569 19:18:47 Yes
58 Alas de Oro - NV 0573-IF22-E BBPD H 1 1 2022-11-04 15:45:52.70 330.678 21:19:53 Yes
59 STP Loft - MI 1412-IF22-FOYS BB H 1 1 2022-11-05 08:41:54.00 289.008 25:29:17 Yes
Queen Louie - ID 2144-AU22-PNWC “Queen Dark Horse” BC H 1 00:00:00.00 0.000 Yes
Heavenz Angel Loft - MN 29803-AU22-JEDD BC H 1 00:00:00.00 0.000 Yes
Nestibelaloft - MI 33008-AU22-ARPU RDGZ H 1 00:00:00.00 0.000 Yes
Tomes Loft - OH 0333-AU22-IHC BC H 1 00:00:00.00 0.000 Yes
Jack The Reaper Loft - CA 1261-AU22-FMT Khaleesi BB H 1 00:00:00.00 0.000 Yes
Ethan Pippitt - KS 0507-AU22-MERL BBPW H 1 00:00:00.00 0.000 Yes
Hale Nūnū - VA 0007-AU22-NUNU BCWT H 1 00:00:00.00 0.000 Yes
Nanez Family Loft - WI 7094-AU22-NANZ BB H 1 00:00:00.00 0.000 Yes
Trapper Bob Loft - MO 0428-AU22-TRAP DCWF H 1 00:00:00.00 0.000 Yes
Mitch Zurker - OH 0399-AU22-IHC BC H 1 00:00:00.00 0.000 Yes
Salvicon - CA 0359-AU22-RBPC BB H 1 00:00:00.00 0.000 Yes
Ivy Calvin - AZ 0710-AU22-EAV GRIZ H 1 00:00:00.00 0.000 Yes
LIBERTY LOFT - MA 26824-AU22-FOYS BB H 1 00:00:00.00 0.000 Yes
Lindbergh Flyers - MO 2146-AU22-NERP BB H 1 00:00:00.00 0.000 Yes
Top Perch - MD 21660-IF22-JFR DCSP H 1 00:00:00.00 0.000 Yes
Steve Zurcher - OH 0247-AU22-IHC SILV H 1 00:00:00.00 0.000 Yes
Hale Nūnū - VA 15042-AU22-JEDD BB H 1 00:00:00.00 0.000 Yes
CAN-AM LOFT - MI 22103-AU22-CAAM BC H 1 00:00:00.00 0.000 Yes
Dennis Johnson - OH 0185-AU22-IHC RC H 1 00:00:00.00 0.000 Yes
Callahan Loft - MO 22138-AU22-AA BB H 1 00:00:00.00 0.000 Yes
Wareagle Loft - AL 0841-AU22-WEL BB H 1 00:00:00.00 0.000 Yes
Ivy Calvin - AZ 0755-AU22-EAV BLK H 1 00:00:00.00 0.000 Yes
Frankie Martinez - OH 0974-AU22-IHC BC H 1 00:00:00.00 0.000 Yes
Chicagoland - OH 11210-AU22-CHIC BC 0 1 00:00:00.00 0.000 Yes
Sanborn Loft - OH 0662-AU22-IHC BC H 1 00:00:00.00 0.000 Yes
Goshentown Lofts - TN 11303-AU22-NASH BB H 1 00:00:00.00 0.000 Yes
Wing And A Prayer-Wi - WI 2528-AU22-MPC BB H 1 00:00:00.00 0.000 Yes
Barry Karas - MI 0510-AU22-HMC BB H 1 00:00:00.00 0.000 Yes

There are 87 bird records

Note: These Race Results are unofficial and subject to change until verified by the Race Committee and declared final.